Weather History for KEWB - November, 2011

Change the Weather History Date:

Friday, November 25, 2011

  Actual Average Record
Temperature  
Mean Temperature 45 °F -  
Max Temperature 60 °F 47 °F 68 °F (1979)
Min Temperature 30 °F 33 °F 10 °F (2000)
Degree Days  
Heating Degree Days 20    
Moisture  
Dew Point 36 °F    
Average Humidity 78    
Maximum Humidity 100    
Minimum Humidity 46    
Precipitation  
Precipitation 0.00 in - - ()
Sea Level Pressure  
Sea Level Pressure 30.08 in    
Wind  
Wind Speed 3 mph (SW)    
Max Wind Speed 12 mph    
Max Gust Speed -    
Visibility 7 miles    
Events Fog    
Averages and records for this station are not official NWS values.
T = Trace of Precipitation, MM = Missing Value Source: NWS Daily Summary

Daily Weather History Graph

Daily Weather History Graph

Search for Another Location

Airport or City:

Trip Planner

Search our weather history database for the weather conditions in past years. The results will help you decide how hot, cold, wet, or windy it might be!

Date:

Astronomy

Nov. 25, 2011 Rise Set
Actual Time 6:44 AM EST 4:16 PM EST
Civil Twilight 6:13 AM EST 4:47 PM EST
Nautical Twilight 5:39 AM EST 5:21 PM EST
Astronomical Twilight 5:06 AM EST 5:54 PM EST
Moon 7:09 AM EST (11/25) 4:40 PM EST (11/25)
Length of Visible Light 10h 33m
Length of Day
9h 32m
New Moon, 0% of the Moon is Illuminated
Nov 25
New Moon
Dec 2
First Quarter
Dec 10
Full
Dec 17
Last Quarter
Dec 24
New

Hourly Weather History & Observations

Time (EST) Temp. Windchill Dew Point Humidity Pressure Visibility Wind Dir Wind Speed Gust Speed Precip Events Conditions
12:53 AM 30.9 °F - 28.9 °F 92% 30.13 in 6.0 mi Calm Calm - N/A   Clear
1:53 AM 30.0 °F - 27.0 °F 88% 30.12 in 7.0 mi Calm Calm - N/A   Clear
2:53 AM 30.0 °F - 27.0 °F 88% 30.12 in 5.0 mi Calm Calm - N/A   Clear
3:53 AM 33.1 °F 30.0 °F 30.9 °F 92% 30.11 in 5.0 mi WSW 3.5 mph - N/A   Clear
4:53 AM 36.0 °F 33.3 °F 34.0 °F 93% 30.12 in 5.0 mi SW 3.5 mph - N/A   Clear
5:09 AM 35.6 °F - 33.8 °F 93% 30.11 in 1.2 mi Calm Calm - N/A   Clear
5:16 AM 33.8 °F - 33.8 °F 100% 30.11 in 0.5 mi Calm Calm - N/A Fog Fog
5:26 AM 35.6 °F 32.8 °F 33.8 °F 93% 30.11 in 1.5 mi SSW 3.5 mph - N/A   Clear
5:44 AM 35.6 °F 31.7 °F 35.6 °F 100% 30.10 in 3.0 mi WSW 4.6 mph - N/A   Clear
5:50 AM 32.0 °F 28.7 °F 32.0 °F 100% 30.10 in 1.8 mi WSW 3.5 mph - N/A   Clear
5:53 AM 30.9 °F 27.5 °F 30.9 °F 100% 30.11 in 1.2 mi WSW 3.5 mph - N/A   Clear
6:05 AM 33.8 °F 28.6 °F 30.2 °F 87% 30.10 in 3.0 mi WSW 5.8 mph - N/A   Clear
6:53 AM 37.4 °F 32.8 °F 35.6 °F 93% 30.12 in 10.0 mi WSW 5.8 mph - N/A   Clear
7:53 AM 39.9 °F 35.8 °F 37.0 °F 89% 30.12 in 8.0 mi SW 5.8 mph - N/A   Clear
8:53 AM 48.0 °F - 39.9 °F 74% 30.11 in 10.0 mi SW 5.8 mph - N/A   Clear
9:53 AM 53.1 °F - 39.0 °F 59% 30.11 in 10.0 mi WSW 9.2 mph - N/A   Clear
10:53 AM 55.0 °F - 39.0 °F 55% 30.08 in 10.0 mi SW 10.4 mph - N/A   Clear
11:53 AM 57.2 °F - 41.0 °F 55% 30.05 in 10.0 mi SW 11.5 mph - N/A   Clear
12:53 PM 57.9 °F - 41.0 °F 53% 30.04 in 10.0 mi SSW 9.2 mph - N/A   Clear
1:53 PM 60.1 °F - 39.0 °F 46% 30.03 in 10.0 mi West 10.4 mph - N/A   Clear
2:53 PM 57.0 °F - 42.1 °F 57% 30.03 in 10.0 mi SSW 6.9 mph - N/A   Clear
3:53 PM 53.6 °F - 42.8 °F 67% 30.03 in 10.0 mi SSW 8.1 mph - N/A   Clear
4:53 PM 50.0 °F - 41.0 °F 71% 30.04 in 10.0 mi South 4.6 mph - N/A   Clear
5:53 PM 48.0 °F - 42.1 °F 80% 30.06 in 10.0 mi Calm Calm - N/A   Clear
6:53 PM 48.0 °F - 39.9 °F 74% 30.06 in 10.0 mi WSW 4.6 mph - N/A   Clear
7:53 PM 46.9 °F - 39.9 °F 77% 30.06 in 10.0 mi Calm Calm - N/A   Clear
8:53 PM 50.0 °F - 39.0 °F 66% 30.06 in 10.0 mi WSW 9.2 mph - N/A   Clear
9:53 PM 48.9 °F - 39.0 °F 69% 30.07 in 10.0 mi WSW 6.9 mph - N/A   Clear
10:53 PM 50.0 °F - 39.0 °F 66% 30.07 in 10.0 mi WSW 5.8 mph - N/A   Clear
11:53 PM 48.9 °F - 39.0 °F 69% 30.07 in 10.0 mi SW 5.8 mph - N/A   Clear